Wind_Speed
19 19 18 17 17 16 16 16 16 15 15 14 14 14 14 14 14 15 15 15 15 15 15 15 15 14 14 14 14 13 13 13 13 13 12 13 13 12 12 11 11 11 11
19 19 19 18 17 17 17 17 17 17 17 17 16 16 16 16 17 17 17 17 17 17 17 17 17 17 16 16 15 15 15 16 15 15 15 15 14 14 14 13 13 13 13
20 19 19 19 19 18 18 18 18 18 18 19 19 19 19 19 19 19 19 19 19 19 19 19 19 18 18 18 18 17 16 16 17 17 17 16 16 16 15 15 15 15 15
21 20 20 20 20 20 20 20 20 20 20 20 21 21 21 21 21 21 21 21 21 21 21 21 21 21 20 20 20 19 19 18 18 18 18 18 17 17 17 17 16 16 16
22 22 22 22 22 21 21 21 22 22 22 23 23 23 23 24 24 24 24 24 24 24 24 24 23 23 23 22 22 22 22 21 21 20 20 20 19 19 19 19 18 18 18
23 23 23 23 23 23 23 23 23 24 24 25 25 25 26 26 26 26 26 26 26 26 26 26 26 26 25 25 25 25 25 24 23 23 22 22 22 21 21 20 20 20 19
25 25 24 25 25 25 25 25 25 25 26 26 27 27 27 28 28 28 28 28 28 29 29 28 28 28 28 27 27 26 26 26 26 26 25 24 24 24 23 23 23 23 22
26 26 26 26 26 26 26 27 27 27 28 29 29 30 30 30 30 31 31 31 31 31 31 31 31 30 30 30 30 29 28 28 28 27 27 27 26 27 26 26 25 25 25
28 28 27 27 28 28 28 29 29 30 30 30 31 31 31 32 32 32 32 33 33 33 33 33 33 33 33 32 32 32 31 31 30 30 29 29 29 29 29 29 28 28 28
29 29 29 29 29 29 30 30 31 31 31 32 32 32 32 32 33 33 34 34 35 35 35 35 35 36 36 35 35 35 34 34 33 32 32 31 31 31 31 31 31 31 31
30 30 30 30 31 31 31 31 31 32 32 32 32 32 33 33 34 34 35 35 36 37 37 37 38 38 38 38 38 37 37 37 37 36 35 34 34 34 34 34 34 33 33
31 31 31 31 31 31 32 32 32 32 33 33 33 34 34 35 35 36 36 37 37 38 39 39 39 40 40 41 40 40 40 39 39 39 38 37 37 37 37 36 36 36 36
31 31 31 31 31 31 32 32 32 33 33 34 35 35 36 37 37 38 38 39 39 40 41 41 41 42 43 43 43 43 42 42 42 41 41 41 40 40 39 39 39 38 38
30 30 30 30 30 31 31 32 32 33 34 35 36 37 38 38 39 40 40 41 41 42 43 43 44 44 45 45 46 46 45 45 45 44 44 44 43 42 42 41 41 41 40
29 29 29 30 30 31 32 33 33 34 35 35 36 37 38 40 41 42 43 43 44 44 45 46 46 47 47 48 49 48 47 47 47 47 46 46 46 45 44 43 43 43 42
29 29 29 30 30 31 32 33 34 35 35 36 38 39 40 41 42 43 44 45 46 47 48 48 49 50 51 51 51 51 50 50 49 49 49 49 49 49 47 46 46 46 45
29 29 29 30 31 32 33 34 35 36 37 38 39 40 42 43 43 45 46 46 48 49 50 50 51 52 53 54 54 54 53 53 52 52 52 52 51 51 50 50 49 48 48
29 30 30 31 32 33 34 35 36 37 39 40 41 42 44 45 45 46 47 48 49 50 52 52 53 54 55 55 56 56 56 56 56 55 55 54 54 53 53 52 52 51 50
29 30 31 32 33 34 35 36 37 39 40 41 43 44 45 45 46 48 48 49 50 52 53 54 55 56 56 57 57 57 58 58 58 58 57 57 56 56 55 55 54 53 52
30 31 32 33 34 35 36 37 39 40 42 43 44 46 47 48 49 50 51 52 54 55 56 57 57 58 59 60 59 60 60 60 61 61 60 59 58 58 57 56 56 54 53
30 31 32 33 34 35 36 38 39 41 42 44 45 47 48 49 50 52 53 54 56 57 58 58 58 59 61 62 63 63 63 63 63 63 62 62 61 60 59 58 58 56 56
32 33 34 35 36 37 38 40 41 42 44 45 47 48 50 51 53 54 56 56 57 58 59 60 60 60 60 63 64 64 64 64 64 64 64 64 63 63 62 61 60 59 58
33 34 35 36 37 38 40 41 43 44 45 47 49 50 51 53 54 55 56 57 58 59 59 60 60 60 60 61 63 64 65 65 65 64 65 65 65 65 64 63 62 62 60
35 35 36 37 38 40 41 43 44 46 47 48 50 51 52 53 54 55 56 57 58 59 59 59 59 60 60 61 61 62 64 65 65 64 63 63 64 64 64 64 64 63 62
36 37 38 39 40 41 43 45 46 48 49 50 50 51 53 54 55 56 57 58 58 58 59 59 59 59 59 59 58 58 58 60 61 62 61 60 61 62 63 64 64 64 63
38 38 39 40 42 43 45 47 48 49 50 50 51 52 53 54 55 56 57 57 57 57 58 57 57 57 57 57 56 56 56 56 57 58 58 58 58 58 60 62 63 63 62
Wind_Direction
249 250 250 251 253 254 255 256 257 259 260 261 262 263 264 266 266 267 269 270 271 273 275 278 280 281 281 281 282 282 280 279 279 278 278 277 277 277 279 279 278 280 284
247 247 249 251 253 255 257 258 259 260 261 263 265 266 267 268 269 269 270 271 270 270 272 274 276 277 277 277 278 279 279 277 277 277 277 276 276 276 276 277 277 279 282
245 246 248 250 253 255 258 259 261 262 263 265 267 268 269 270 270 271 272 272 271 271 271 272 274 274 275 276 276 276 278 279 277 276 275 277 276 276 275 275 276 278 280
246 246 248 251 253 255 258 261 262 264 265 266 268 269 270 271 272 272 273 273 272 272 271 271 271 272 272 274 275 274 276 278 277 276 275 275 275 274 276 274 275 278 279
248 248 250 252 255 257 259 262 264 265 266 267 268 269 270 271 272 273 273 273 272 272 271 270 270 271 271 272 273 274 274 275 276 274 274 274 273 273 273 273 274 276 277
251 252 253 255 257 260 262 264 265 267 268 269 270 270 271 271 272 272 272 273 273 272 271 271 270 270 270 271 271 273 273 273 274 273 272 272 271 270 270 271 271 274 276
254 255 256 258 260 262 263 265 266 267 269 270 270 271 272 272 272 272 272 272 272 273 272 271 271 270 270 269 270 271 272 272 272 272 271 271 270 270 270 270 271 272 274
256 257 258 260 261 263 265 266 267 268 269 270 270 271 271 272 273 273 272 272 271 271 271 271 270 270 270 269 269 269 270 271 271 271 272 271 270 269 269 270 270 271 273
257 258 260 261 262 263 265 267 267 268 269 270 271 270 271 271 272 272 272 271 271 271 271 270 270 269 268 269 269 268 268 269 270 269 270 271 270 268 268 269 270 271 272
257 258 260 261 262 264 266 267 268 269 270 270 271 271 271 272 272 272 271 271 271 270 270 270 269 269 269 268 268 269 268 268 268 268 268 269 270 269 268 268 269 270 271
258 259 261 262 264 266 267 268 269 270 271 271 271 271 271 272 272 272 272 272 272 271 270 270 269 269 269 268 268 268 268 268 267 267 267 267 268 268 269 268 268 269 270
259 261 262 263 265 266 267 268 269 270 271 271 272 272 272 273 274 273 273 273 272 272 271 270 270 269 269 268 267 267 267 267 267 266 267 267 267 267 268 268 269 269 269
259 260 262 264 266 268 269 269 270 271 272 273 273 274 274 274 274 274 274 274 274 273 272 271 270 270 269 269 269 268 267 267 267 266 266 266 267 267 267 267 268 269 269
258 261 263 265 267 269 270 270 271 273 273 274 275 275 276 276 276 276 276 276 276 274 273 272 271 270 270 270 269 269 268 267 267 267 267 266 266 266 267 267 267 268 269
259 260 263 265 267 269 270 271 272 273 275 276 277 277 277 277 277 277 276 276 276 275 274 273 272 271 271 270 269 268 268 267 266 266 266 266 266 266 266 267 267 267 267
260 262 264 266 268 270 271 272 273 275 275 277 278 278 278 279 278 278 277 276 276 275 275 274 272 271 270 270 269 269 268 267 266 266 265 265 265 266 265 266 267 267 266
261 263 266 268 270 272 273 275 276 276 277 279 279 280 280 280 279 278 278 277 276 275 275 275 274 272 271 271 270 269 268 267 266 265 265 265 265 265 265 265 266 266 266
262 265 267 269 271 273 274 275 276 278 279 280 281 282 282 281 280 280 279 278 277 277 276 276 274 272 271 271 270 269 268 267 266 265 264 264 264 264 265 265 265 266 266
264 267 269 271 273 275 276 277 278 279 281 282 283 283 283 282 281 281 281 280 279 278 278 277 275 273 271 271 269 268 267 266 265 265 264 264 263 263 264 264 264 264 265
267 269 271 273 275 277 278 279 280 281 283 283 284 284 284 283 283 283 282 281 280 280 279 278 276 274 272 271 271 269 267 266 265 264 263 263 262 262 262 263 263 263 264
269 271 273 275 277 278 279 280 282 283 284 285 285 286 285 285 286 286 285 284 283 282 281 279 278 276 274 272 271 270 268 266 265 264 263 262 262 261 262 262 262 262 262
271 272 274 276 278 279 280 281 283 284 285 285 286 287 287 287 287 287 287 287 285 284 282 281 279 277 275 274 273 272 269 266 265 264 263 262 261 261 261 261 261 261 262
271 273 275 277 279 280 282 283 284 286 286 287 287 288 288 289 288 288 288 288 287 286 284 282 281 279 277 276 276 274 272 269 265 262 262 261 260 260 260 260 261 261 261
272 274 277 278 280 282 283 285 286 287 288 288 288 289 290 290 290 290 290 289 288 287 286 284 282 280 280 278 277 275 273 271 268 263 260 259 259 259 259 259 260 260 260
273 275 278 280 282 283 285 286 288 289 289 289 289 290 291 291 292 292 292 291 290 289 287 285 282 281 280 280 278 276 274 271 269 266 261 258 258 258 258 259 259 259 259
275 277 279 281 283 285 286 288 289 290 290 290 291 292 292 292 292 292 293 292 290 289 288 286 284 282 281 280 277 276 274 272 270 267 263 260 259 258 259 259 259 258 258
Height
5839 5840 5841 5842 5843 5844 5845 5846 5847 5848 5848 5849 5850 5850 5851 5852 5852 5853 5854 5854 5855 5856 5857 5857 5858 5858 5858 5859 5859 5859 5859 5860 5860 5860 5860 5860 5860 5860 5860 5860 5860 5860 5860
5836 5837 5838 5839 5840 5841 5842 5843 5844 5845 5846 5846 5847 5848 5849 5849 5850 5851 5851 5852 5853 5853 5854 5855 5855 5855 5856 5856 5857 5857 5857 5857 5857 5857 5858 5858 5858 5858 5858 5858 5858 5858 5858
5833 5834 5835 5836 5837 5838 5839 5840 5841 5842 5843 5844 5844 5845 5846 5846 5847 5848 5848 5849 5849 5850 5851 5851 5852 5852 5853 5853 5854 5854 5854 5854 5854 5855 5855 5855 5855 5856 5856 5856 5856 5856 5856
5829 5831 5832 5833 5834 5835 5836 5837 5838 5839 5839 5840 5841 5842 5842 5843 5844 5844 5845 5845 5846 5847 5847 5848 5848 5849 5849 5850 5850 5851 5851 5851 5851 5852 5852 5852 5852 5853 5853 5853 5853 5853 5853
5826 5827 5828 5829 5830 5831 5832 5833 5834 5835 5836 5836 5837 5838 5838 5839 5840 5840 5841 5841 5842 5842 5843 5844 5844 5845 5845 5846 5846 5847 5847 5848 5848 5848 5848 5849 5849 5849 5849 5849 5850 5850 5850
5822 5823 5824 5825 5826 5827 5828 5829 5830 5831 5831 5832 5833 5833 5834 5834 5835 5835 5836 5837 5837 5838 5838 5839 5840 5840 5841 5841 5842 5842 5843 5843 5844 5844 5844 5845 5845 5845 5845 5846 5846 5846 5846
5818 5819 5820 5821 5822 5823 5824 5825 5826 5826 5827 5827 5828 5828 5829 5829 5830 5830 5831 5831 5832 5832 5833 5833 5834 5835 5836 5836 5837 5837 5838 5838 5839 5839 5840 5840 5840 5841 5841 5841 5841 5842 5842
5813 5814 5815 5817 5817 5818 5819 5820 5821 5821 5822 5822 5823 5823 5823 5824 5824 5825 5825 5826 5826 5826 5827 5828 5828 5829 5830 5830 5831 5832 5832 5833 5833 5834 5835 5835 5835 5836 5836 5836 5837 5837 5837
5808 5809 5810 5811 5812 5813 5814 5815 5815 5816 5816 5817 5817 5817 5818 5818 5818 5818 5819 5819 5820 5820 5820 5821 5822 5822 5823 5824 5825 5825 5826 5827 5827 5828 5829 5829 5830 5830 5831 5831 5831 5831 5832
5803 5804 5805 5806 5807 5808 5808 5809 5809 5810 5810 5811 5811 5811 5811 5811 5811 5812 5812 5812 5813 5813 5813 5814 5815 5815 5816 5817 5818 5819 5819 5820 5821 5821 5822 5823 5823 5824 5824 5825 5825 5825 5826
5797 5798 5799 5800 5801 5802 5802 5803 5803 5803 5804 5804 5804 5804 5805 5805 5805 5805 5805 5805 5805 5806 5806 5807 5807 5808 5809 5809 5810 5811 5812 5813 5813 5814 5815 5816 5816 5817 5817 5818 5818 5819 5819
5792 5793 5794 5794 5795 5796 5796 5796 5797 5797 5797 5797 5797 5798 5798 5798 5797 5797 5797 5797 5797 5798 5798 5799 5799 5800 5800 5801 5802 5802 5803 5804 5805 5806 5807 5808 5808 5809 5809 5810 5811 5811 5812
5785 5787 5788 5788 5789 5789 5789 5790 5790 5790 5790 5790 5790 5790 5790 5790 5790 5789 5789 5789 5789 5789 5790 5790 5790 5791 5791 5792 5792 5793 5794 5795 5796 5797 5798 5799 5800 5800 5801 5802 5802 5803 5804
5779 5780 5781 5782 5782 5783 5783 5783 5783 5783 5783 5783 5783 5782 5782 5782 5781 5781 5781 5781 5780 5780 5780 5781 5781 5781 5782 5782 5783 5783 5784 5785 5787 5788 5789 5790 5790 5791 5792 5793 5794 5794 5795
5773 5774 5775 5776 5776 5776 5776 5776 5776 5776 5776 5775 5775 5774 5774 5773 5773 5772 5772 5771 5771 5771 5771 5771 5771 5771 5771 5772 5772 5773 5774 5775 5776 5777 5778 5779 5780 5781 5782 5783 5784 5785 5785
5767 5768 5768 5769 5769 5769 5769 5769 5769 5769 5768 5767 5767 5766 5765 5764 5763 5762 5762 5761 5761 5760 5760 5760 5760 5760 5760 5761 5761 5761 5762 5763 5764 5765 5766 5768 5769 5770 5771 5772 5773 5774 5775
5761 5761 5762 5762 5762 5762 5762 5762 5761 5761 5760 5759 5758 5757 5756 5754 5753 5752 5751 5751 5750 5749 5749 5748 5748 5748 5748 5749 5749 5749 5750 5751 5752 5753 5754 5755 5757 5758 5759 5761 5762 5763 5764
5754 5754 5755 5755 5755 5755 5754 5754 5753 5752 5751 5750 5749 5747 5746 5744 5743 5742 5741 5739 5738 5737 5736 5736 5735 5735 5735 5735 5735 5736 5736 5737 5739 5740 5741 5742 5744 5745 5747 5748 5750 5751 5752
5747 5747 5747 5747 5747 5747 5746 5745 5745 5743 5742 5740 5739 5737 5735 5733 5731 5730 5729 5727 5726 5724 5723 5722 5721 5720 5721 5720 5720 5721 5722 5723 5724 5725 5726 5728 5729 5731 5733 5735 5736 5738 5740
5740 5740 5740 5739 5739 5739 5738 5737 5736 5734 5733 5730 5728 5726 5724 5722 5720 5718 5716 5714 5712 5710 5709 5707 5706 5705 5704 5704 5704 5705 5706 5707 5708 5709 5711 5712 5714 5716 5718 5720 5723 5725 5727
5732 5732 5732 5732 5731 5730 5729 5728 5726 5725 5723 5720 5718 5715 5712 5710 5707 5705 5703 5700 5698 5696 5694 5691 5689 5688 5688 5686 5686 5688 5690 5690 5691 5693 5694 5696 5698 5701 5703 5705 5708 5710 5713
5725 5724 5724 5723 5723 5721 5720 5718 5717 5715 5712 5710 5707 5704 5700 5697 5694 5691 5688 5685 5683 5680 5678 5675 5672 5671 5671 5668 5668 5668 5670 5673 5673 5675 5676 5679 5681 5684 5687 5689 5692 5695 5698
5717 5716 5716 5715 5713 5712 5710 5708 5706 5704 5702 5699 5695 5692 5688 5684 5681 5677 5674 5670 5667 5664 5661 5658 5655 5654 5653 5651 5648 5647 5648 5651 5655 5658 5658 5661 5663 5666 5669 5672 5675 5678 5681
5708 5708 5707 5706 5704 5702 5700 5698 5696 5693 5690 5687 5683 5680 5676 5671 5667 5663 5660 5656 5652 5648 5645 5642 5639 5636 5634 5633 5631 5629 5628 5629 5631 5637 5642 5643 5645 5647 5651 5654 5658 5661 5664
5699 5699 5698 5696 5694 5693 5690 5688 5685 5682 5678 5675 5671 5667 5663 5659 5654 5650 5645 5641 5637 5633 5629 5626 5623 5620 5617 5615 5613 5611 5610 5610 5611 5614 5621 5626 5628 5630 5633 5636 5639 5643 5647
5690 5689 5688 5686 5684 5682 5679 5676 5673 5670 5666 5662 5658 5654 5650 5646 5641 5636 5631 5626 5622 5618 5614 5610 5607 5604 5601 5599 5597 5595 5594 5594 5595 5596 5600 5606 5611 5615 5616 5619 5622 5625 5629